EDT,Max TemperatureF,Mean TemperatureF,Min TemperatureF,Max Dew PointF,MeanDew PointF,Min DewpointF,Max Humidity, Mean Humidity, Min Humidity, Max Sea Level PressureIn, Mean Sea Level PressureIn, Min Sea Level PressureIn, Max VisibilityMiles, Mean VisibilityMiles, Min VisibilityMiles, Max Wind SpeedMPH, Mean Wind SpeedMPH, Max Gust SpeedMPH,PrecipitationIn, CloudCover, Events, WindDirDegrees
2011-9-1,80,68,56,70,62,55,100,84,67,30.25,30.19,30.08,10,4,0,17,1,26,0.37,4,Fog-Rain,203
2011-9-2,88,76,63,73,67,63,100,79,57,30.14,30.08,30.02,7,3,0,9,1,14,0.02,4,Fog-Rain,350
2011-9-3,91,78,65,71,66,64,100,71,41,30.10,30.05,29.95,10,3,0,12,1,15,T,4,Fog-Rain,170
2011-9-4,89,77,65,69,65,64,100,74,48,30.02,29.94,29.86,10,6,2,17,2,22,1.05,4,Rain,280
2011-9-5,71,64,57,66,62,55,100,92,84,29.94,29.87,29.81,10,7,2,14,3,20,0.80,7,Rain,339
2011-9-6,61,58,55,58,55,54,100,89,78,29.97,29.94,29.91,10,7,1,10,2,15,1.30,8,Rain,323
2011-9-7,77,67,57,61,57,54,93,72,50,29.99,29.95,29.89,10,10,10,13,2,17,0.00,5,,154
2011-9-8,79,71,62,63,61,58,100,79,57,29.99,29.95,29.90,10,10,7,12,2,15,0.01,8,Rain,330
2011-9-9,78,70,61,63,61,58,100,77,54,30.01,29.96,29.90,10,9,6,12,3,16,0.00,7,,318
2011-9-10,74,64,54,61,58,55,100,79,57,30.12,30.05,29.98,10,7,2,10,3,14,T,5,,303
2011-9-11,79,66,53,58,54,52,100,72,43,30.16,30.12,30.04,10,4,0,20,3,25,0.00,5,Fog,240
2011-9-12,75,64,52,58,56,51,100,77,54,30.16,30.12,30.06,10,8,3,12,2,14,0.00,4,,293
2011-9-13,80,66,51,61,54,51,100,71,42,30.11,30.08,30.00,10,4,0,12,3,17,0.00,3,Fog,244
2011-9-14,83,69,54,66,60,54,100,76,51,30.06,30.01,29.97,10,5,0,13,2,17,0.11,4,Fog-Rain,296
2011-9-15,63,52,40,61,53,39,100,92,83,30.32,30.10,29.93,10,6,0,13,3,18,0.48,6,Fog-Rain,328
2011-9-16,61,50,38,47,41,37,100,77,53,30.42,30.35,30.31,10,5,0,8,2,10,0.00,4,Fog,338
2011-9-17,66,54,42,47,45,41,100,76,52,30.36,30.33,30.30,10,9,2,8,2,,T,5,Rain,175
2011-9-18,67,54,41,49,45,41,100,76,52,30.39,30.34,30.28,10,7,0,13,2,18,0.00,2,Fog,127
2011-9-19,67,56,44,55,50,44,100,82,63,30.29,30.19,30.11,10,10,6,10,4,,0.12,3,Rain,161
2011-9-20,74,66,57,61,58,55,100,87,73,30.18,30.15,30.09,10,6,1,6,2,8,0.30,8,Rain,160
2011-9-21,73,64,55,62,59,55,100,83,66,30.19,30.14,30.10,10,6,0,13,2,18,T,7,Fog,157
2011-9-22,78,68,57,64,60,57,100,80,60,30.18,30.15,30.11,10,5,0,12,2,15,0.10,4,Fog-Rain,317
2011-9-23,72,65,58,64,60,55,100,90,79,30.13,30.04,29.95,10,5,0,15,2,22,0.33,7,Fog-Rain,252
2011-9-24,71,63,55,61,57,54,100,87,73,30.11,30.08,30.05,10,7,0,8,2,10,0.11,7,Fog-Rain,332
2011-9-25,79,66,52,63,57,52,100,77,54,30.13,30.06,29.97,10,7,0,13,3,21,0.00,4,Fog,162
2011-9-26,80,68,55,62,59,54,93,72,51,29.99,29.94,29.89,10,8,1,16,5,24,T,1,Rain,164
2011-9-27,76,66,55,63,62,56,100,80,60,29.97,29.92,29.86,10,8,2,13,2,16,0.43,6,Rain,300
2011-9-28,72,64,56,60,57,53,100,79,57,29.94,29.90,29.85,10,6,0,15,1,25,0.01,7,Fog-Rain,313
2011-9-29,65,58,50,57,52,48,100,83,65,29.89,29.83,29.79,10,8,1,16,3,25,0.01,6,Rain,247
2011-9-30,61,52,43,54,46,39,93,75,57,29.87,29.81,29.77,10,9,2,32,8,38,0.14,7,Rain,262